Simultaneous Nadir Overpasses (SNOs) Predictions

Prediction of SNOs between METOP-B and TERRA Satellite Orbit:

Table of predicted SNOs for the next 14.0 days since TLE Epoch: 6/24/2023
Index Date (METOP-B) Time (METOP-B) Lat,Lon (METOP-B) SZA (METOP-B ) Date (TERRA) Time (TERRA) Lat,Lon (TERRA) SZA (TERRA ) Distance(km) Time Diff (sec)
1 06/26/2023 03:33:26 -80.79, -21.54 121.20 06/26/2023 03:34:14 -80.80, -21.41 121.16 2.71 48
2 06/26/2023 04:24:04 80.84, 146.63 58.92 06/26/2023 04:23:34 80.84, 146.70 58.92 1.29 30
3 06/28/2023 19:45:01 -80.84, 96.41 120.99 06/28/2023 19:45:00 -80.84, 96.34 120.99 1.21 1
4 07/01/2023 11:05:59 80.80, 45.47 59.06 07/01/2023 11:06:25 80.80, 45.49 59.07 0.31 26
5 07/01/2023 11:56:37 -80.86,-146.06 120.78 07/01/2023 11:55:46 -80.86,-146.11 120.81 0.96 51
6 07/04/2023 02:26:56 -80.78, -5.20 120.81 07/04/2023 02:27:50 -80.77, -5.18 120.79 0.27 54
7 07/04/2023 03:17:33 80.84, 163.27 59.35 07/04/2023 03:17:09 80.83, 163.14 59.32 2.37 24
8 07/06/2023 18:38:31 -80.81, 112.54 120.48 07/06/2023 18:38:34 -80.82, 112.64 120.47 2.00 3



Historial Predications of SNOs between METOP-B and TERRA
